[[{"header":{"parameterUnit":"m.s-1","parameterCategory":1,"la1":30.2992,"la2":30.254,"lo1":-89.0895,"lo2":-89.0443,"dy":0.0025,"dx":0.0025,"nx":19,"ny":19,"refTime":"2026-03-14T09:00:00:Z","depth":0,"parameterNumber":2,"parameterNumberName":"U-component_of_WINDS"},"data":[0,0,0,-2.2187,-2.2188,-2.2261,-2.2261,-2.2352,-2.2353,0,0,0,0,0,0,0,0,0,0,0,-2.2163,-2.2163,-2.2186,-2.2188,-2.2261,-2.2261,-2.2352,-2.2353,0,0,0,0,0,0,0,0,0,0,0,-2.2163,-2.2163,-2.2164,-2.2188,-2.2261,-2.2261,-2.2352,-2.2298,0,0,0,0,0,0,0,0,0,0,-2.2228,-2.2204,-2.2163,-2.2164,-2.2189,-2.226,-2.2261,-2.2295,-2.2301,-2.2318,0,-2.2332,0,-2.2344,-2.2359,-2.2359,0,0,0,-2.219,-2.2199,-2.222,-2.2164,-2.219,-2.226,-2.2228,-2.2299,-2.2305,-2.2326,-2.2333,-2.2337,-2.2345,-2.2359,-2.236,-2.2449,-2.245,0,0,-2.2186,-2.2175,-2.2215,-2.2224,-2.2212,-2.2226,-2.2231,-2.2303,-2.231,-2.2333,-2.2339,-2.2347,-2.236,-2.2361,-2.2449,-2.2449,0,0,0,-2.2173,-2.2172,-2.2192,-2.222,-2.2234,-2.2228,-2.2233,-2.2307,-2.2314,-2.234,-2.2348,-2.236,-2.2362,-2.2449,-2.2449,-2.2454,0,0,0,-2.2171,-2.2165,-2.219,-2.2184,-2.2232,-2.2271,-2.2236,-2.2309,-2.2318,-2.2347,-2.2361,-2.2362,-2.2448,-2.2449,-2.2453,-2.2457,0,0,0,-2.2159,-2.2163,-2.2173,-2.2183,-2.2214,-2.227,-2.2281,-2.2311,-2.2323,-2.2359,-2.2363,-2.2448,-2.2449,-2.2452,-2.2456,-2.2477,0,0,0,-2.2143,-2.2176,-2.2173,-2.2213,-2.2213,-2.2272,-2.2281,-2.2326,-2.2358,-2.2361,-2.2448,-2.2449,-2.2452,-2.2455,-2.2476,-2.2492,-2.2497,0,0,-2.2179,-2.218,-2.2205,-2.2204,-2.226,-2.2262,-2.232,-2.236,-2.2375,-2.2424,-2.2426,-2.2453,-2.2456,-2.2477,-2.2535,-2.254,0,0,0,-2.2212,-2.223,-2.2248,-2.2277,-2.2309,-2.2336,-2.2369,-2.2384,-2.2426,-2.2397,-2.2467,-2.2469,-2.2482,-2.249,-2.2494,-2.2505,-2.2453,-2.2453,-2.2452,-2.2246,-2.2262,-2.2304,-2.233,-2.2359,-2.2393,-2.2418,-2.2445,-2.2453,-2.2469,-2.2483,-2.2517,-2.2526,-2.2529,-2.2541,-2.2494,-2.2494,-2.2494,-2.2494,-2.2299,-2.2326,-2.2337,-2.2381,-2.2399,-2.2437,-2.2472,-2.2477,-2.2516,-2.2507,-2.252,-2.2507,-2.2533,-2.2544,-2.2495,-2.2495,-2.2495,-2.2495,-2.2495,-2.2321,-2.2337,-2.2355,-2.24,-2.2433,-2.2459,-2.2496,-2.2511,-2.2526,-2.2538,-2.2555,-2.2555,-2.2556,-2.2546,-2.2546,-2.2546,-2.2546,-2.2546,-2.2546,-2.2336,-2.2357,-2.2385,-2.2422,-2.2444,-2.2474,-2.251,-2.2532,-2.2561,-2.2569,-2.257,-2.2576,-2.2533,-2.2521,-2.2548,-2.2548,-2.2547,-2.2547,-2.2547,-2.2381,-2.2374,-2.2417,-2.2439,-2.2484,-2.2517,-2.2537,-2.2581,-2.2602,-2.262,-2.2625,-2.259,-2.2593,-2.259,-2.258,-2.2621,-2.2621,-2.2621,-2.2621,-2.2399,-2.2402,-2.245,-2.2484,-2.2519,-2.2542,-2.2592,-2.2621,-2.2651,-2.2665,-2.2662,-2.2651,-2.2647,-2.2652,-2.2648,-2.2639,-2.2693,-2.2694,-2.2694,-2.2427,-2.2435,-2.2473,-2.2501,-2.2538,-2.257,-2.2618,-2.2657,-2.2689,-2.2697,-2.2676,-2.2673,-2.2656,-2.2649,-2.2654,-2.2647,-2.263,0,0]},{"header":{"parameterUnit":"m.s-1","parameterCategory":1,"la1":30.2992,"la2":30.254,"lo1":-89.0895,"lo2":-89.0443,"dy":0.0025,"dx":0.0025,"nx":19,"ny":19,"refTime":"2026-03-14T09:00:00:Z","depth":0,"parameterNumber":3,"parameterNumberName":"V-component_of_WINDS"},"data":[0,0,0,2.0808,2.0808,2.0838,2.0838,2.0867,2.0867,0,0,0,0,0,0,0,0,0,0,0,2.0793,2.0793,2.0807,2.0808,2.0838,2.0838,2.0867,2.0867,0,0,0,0,0,0,0,0,0,0,0,2.0793,2.0793,2.0793,2.0808,2.0838,2.0838,2.0867,2.0847,0,0,0,0,0,0,0,0,0,0,2.082,2.0802,2.0793,2.0793,2.0808,2.0838,2.0838,2.0847,2.0848,2.0849,0,2.0849,0,2.0858,2.0868,2.0868,0,0,0,2.0812,2.08,2.0813,2.0793,2.0809,2.0838,2.0826,2.0848,2.085,2.0852,2.0849,2.0851,2.0859,2.0868,2.0868,2.0862,2.0862,0,0,2.081,2.0796,2.0811,2.0814,2.081,2.0825,2.0826,2.0849,2.0845,2.085,2.0852,2.0859,2.0868,2.0869,2.0862,2.0862,0,0,0,2.0803,2.0794,2.0807,2.0813,2.0819,2.0825,2.0827,2.0844,2.085,2.0852,2.086,2.0869,2.0869,2.0862,2.0862,2.0838,0,0,0,2.0802,2.079,2.0806,2.0797,2.0818,2.0832,2.0822,2.0848,2.0851,2.0859,2.0869,2.0869,2.0863,2.0862,2.0839,2.0829,0,0,0,2.0793,2.0789,2.0792,2.0797,2.0809,2.0832,2.0839,2.0849,2.0856,2.0868,2.0869,2.0863,2.0862,2.084,2.083,2.0823,0,0,0,2.0779,2.0769,2.0791,2.0783,2.0809,2.0818,2.0839,2.0846,2.0854,2.0869,2.0863,2.0862,2.0841,2.0832,2.0824,2.0813,2.0808,0,0,2.0758,2.0766,2.0763,2.0783,2.0785,2.0814,2.0812,2.0832,2.0846,2.0856,2.0856,2.0839,2.0831,2.0823,2.0783,2.0778,0,0,0,2.0751,2.0748,2.0752,2.076,2.0776,2.0789,2.0811,2.0819,2.0828,2.0849,2.0835,2.083,2.0826,2.0822,2.0818,2.0816,2.086,2.086,2.086,2.07,2.072,2.0715,2.0739,2.0746,2.077,2.0777,2.0792,2.0809,2.0805,2.0808,2.0781,2.0775,2.0773,2.077,2.0805,2.0804,2.0804,2.0804,2.0671,2.067,2.0695,2.0699,2.072,2.0723,2.0747,2.0759,2.0765,2.0781,2.0778,2.0793,2.0767,2.0766,2.0803,2.0803,2.0803,2.0803,2.0803,2.0639,2.0642,2.0653,2.0666,2.0674,2.0699,2.0704,2.0723,2.074,2.0738,2.0742,2.0743,2.0745,2.0739,2.0739,2.0739,2.0739,2.0739,2.0739,2.0601,2.0614,2.0616,2.0634,2.0642,2.0654,2.068,2.0687,2.0701,2.0714,2.0714,2.0731,2.0761,2.0768,2.0737,2.0737,2.0738,2.0738,2.0738,2.0562,2.0575,2.0578,2.0586,2.0609,2.0616,2.0641,2.0655,2.0665,2.0666,2.0685,2.0705,2.0713,2.0716,2.0722,2.0681,2.0681,2.0681,2.0681,2.0535,2.0542,2.055,2.0562,2.0575,2.0599,2.0602,2.0622,2.0644,2.0651,2.066,2.0669,2.0672,2.0679,2.0683,2.0688,2.064,2.064,2.064,2.0512,2.0521,2.0521,2.0544,2.0563,2.0579,2.0583,2.0595,2.0623,2.0638,2.0656,2.0658,2.0674,2.0678,2.0692,2.0698,2.0709,0,0]}]]